Hourly Weather Wlora

Today, 14 July, Tuesday

Time Temperature Precipitation Wind Pressure Humidity
00:00 +22°C° 0 mm 6 mps 758 mmHg 68%
01:00 +22°C° 0 mm 5 mps 758 mmHg 66%
02:00 +22°C° 0 mm 5 mps 758 mmHg 63%
03:00 +22°C° 0 mm 5 mps 758 mmHg 60%
04:00 +22°C° 0 mm 5 mps 758 mmHg 56%
05:00 +23°C° 0 mm 4 mps 758 mmHg 52%
06:00 +25°C° 0 mm 4 mps 758 mmHg 48%
07:00 +27°C° 0 mm 4 mps 758 mmHg 45%
08:00 +28°C° 0 mm 3 mps 758 mmHg 44%
09:00 +29°C° 0 mm 3 mps 758 mmHg 44%
10:00 +30°C° 0 mm 3 mps 759 mmHg 44%
11:00 +30°C° 0 mm 3 mps 758 mmHg 45%
12:00 +30°C° 0 mm 3 mps 758 mmHg 47%
13:00 +30°C° 0 mm 3 mps 758 mmHg 48%
14:00 +30°C° 0 mm 3 mps 758 mmHg 50%
15:00 +30°C° 0 mm 3 mps 758 mmHg 52%
16:00 +29°C° 0 mm 4 mps 758 mmHg 54%
17:00 +28°C° 0 mm 4 mps 758 mmHg 58%
18:00 +27°C° 0 mm 4 mps 758 mmHg 63%
19:00 +26°C° 0 mm 4 mps 758 mmHg 68%
20:00 +25°C° 0 mm 4 mps 759 mmHg 70%
21:00 +24°C° 0 mm 3 mps 759 mmHg 73%
22:00 +22°C° 0 mm 3 mps 759 mmHg 76%
23:00 +23°C° 0 mm 2 mps 759 mmHg 77%

Tomorrow, 15 July, Wednesday

Time Temperature Precipitation Wind Pressure Humidity
00:00 +23°C° 0 mm 2 mps 760 mmHg 78%
01:00 +23°C° 0 mm 2 mps 760 mmHg 78%
02:00 +21°C° 0 mm 2 mps 760 mmHg 79%
03:00 +21°C° 0 mm 2 mps 760 mmHg 80%
04:00 +21°C° 0 mm 2 mps 760 mmHg 81%
05:00 +23°C° 0 mm 2 mps 760 mmHg 74%
06:00 +25°C° 0 mm 1 mps 760 mmHg 68%
07:00 +26°C° 0 mm 1 mps 760 mmHg 62%
08:00 +27°C° 0 mm 1 mps 760 mmHg 57%
09:00 +29°C° 0 mm 1 mps 761 mmHg 51%
10:00 +30°C° 0 mm 1 mps 761 mmHg 46%
11:00 +30°C° 0 mm 1 mps 761 mmHg 46%
12:00 +30°C° 0 mm 2 mps 761 mmHg 46%
13:00 +30°C° 0 mm 2 mps 760 mmHg 46%
14:00 +30°C° 0 mm 2 mps 760 mmHg 47%
15:00 +30°C° 0 mm 2 mps 760 mmHg 49%
16:00 +29°C° 0 mm 2 mps 760 mmHg 50%
17:00 +28°C° 0 mm 2 mps 760 mmHg 55%
18:00 +27°C° 0 mm 2 mps 760 mmHg 60%
19:00 +26°C° 0 mm 3 mps 760 mmHg 65%
20:00 +25°C° 0 mm 3 mps 760 mmHg 68%
21:00 +25°C° 0 mm 3 mps 760 mmHg 70%
22:00 +24°C° 0 mm 3 mps 760 mmHg 73%
23:00 +23°C° 0.1 mm 4 mps 760 mmHg 70%

Day after tomorrow, 16 July, Thursday

Time Temperature Precipitation Wind Pressure Humidity
00:00 +23°C° 0.1 mm 4 mps 760 mmHg 68%
01:00 +23°C° 0.1 mm 5 mps 760 mmHg 66%
02:00 +23°C° 0.3 mm 4 mps 759 mmHg 66%
03:00 +22°C° 0.3 mm 4 mps 759 mmHg 67%
04:00 +22°C° 0.3 mm 4 mps 759 mmHg 68%
05:00 +24°C° 0.1 mm 3 mps 759 mmHg 63%
06:00 +26°C° 0.1 mm 3 mps 759 mmHg 59%
07:00 +27°C° 0.1 mm 2 mps 759 mmHg 54%
08:00 +28°C° 0 mm 2 mps 759 mmHg 51%
09:00 +29°C° 0 mm 2 mps 759 mmHg 49%
10:00 +30°C° 0 mm 2 mps 759 mmHg 46%
11:00 +30°C° 0 mm 2 mps 759 mmHg 47%
12:00 +30°C° 0 mm 2 mps 759 mmHg 49%
13:00 +30°C° 0 mm 2 mps 759 mmHg 51%
14:00 +30°C° 0 mm 3 mps 758 mmHg 51%
15:00 +30°C° 0 mm 3 mps 758 mmHg 51%
16:00 +30°C° 0 mm 4 mps 758 mmHg 51%
17:00 +28°C° 0 mm 4 mps 758 mmHg 56%
18:00 +27°C° 0 mm 4 mps 758 mmHg 61%
19:00 +26°C° 0 mm 4 mps 758 mmHg 66%
20:00 +25°C° 0 mm 4 mps 758 mmHg 68%
21:00 +23°C° 0 mm 4 mps 758 mmHg 70%
22:00 +23°C° 0 mm 4 mps 758 mmHg 72%
23:00 +22°C° 0 mm 3 mps 758 mmHg 70%

17 July, Friday

Time Temperature Precipitation Wind Pressure Humidity
00:00 +22°C° 0 mm 3 mps 758 mmHg 69%
01:00 +22°C° 0 mm 3 mps 758 mmHg 68%
02:00 +22°C° 0 mm 3 mps 757 mmHg 67%
03:00 +21°C° 0 mm 3 mps 757 mmHg 67%
04:00 +21°C° 0 mm 3 mps 757 mmHg 67%
05:00 +24°C° 0 mm 3 mps 757 mmHg 61%
06:00 +25°C° 0 mm 3 mps 757 mmHg 56%
07:00 +27°C° 0 mm 3 mps 757 mmHg 51%
08:00 +28°C° 0 mm 3 mps 757 mmHg 47%
09:00 +30°C° 0 mm 3 mps 757 mmHg 44%
10:00 +31°C° 0 mm 3 mps 757 mmHg 40%
11:00 +31°C° 0 mm 3 mps 757 mmHg 41%
12:00 +31°C° 0 mm 3 mps 756 mmHg 43%
13:00 +31°C° 0 mm 3 mps 756 mmHg 44%
14:00 +31°C° 0 mm 3 mps 756 mmHg 44%
15:00 +31°C° 0 mm 3 mps 756 mmHg 44%
16:00 +30°C° 0 mm 3 mps 756 mmHg 44%
17:00 +29°C° 0 mm 2 mps 756 mmHg 50%
18:00 +27°C° 0 mm 2 mps 756 mmHg 56%
19:00 +26°C° 0 mm 2 mps 756 mmHg 61%
20:00 +25°C° 0 mm 2 mps 756 mmHg 63%
21:00 +25°C° 0 mm 2 mps 756 mmHg 64%
22:00 +24°C° 0 mm 2 mps 757 mmHg 65%
23:00 +24°C° 0 mm 2 mps 756 mmHg 67%

18 July, Saturday

Time Temperature Precipitation Wind Pressure Humidity
00:00 +23°C° 0 mm 2 mps 756 mmHg 68%
01:00 +23°C° 0 mm 2 mps 756 mmHg 70%
02:00 +23°C° 0 mm 2 mps 756 mmHg 69%
03:00 +23°C° 0 mm 2 mps 756 mmHg 69%
04:00 +21°C° 0 mm 2 mps 756 mmHg 69%
05:00 +24°C° 0 mm 2 mps 756 mmHg 64%
06:00 +25°C° 0 mm 1 mps 756 mmHg 58%
07:00 +27°C° 0 mm 1 mps 756 mmHg 53%
08:00 +28°C° 0 mm 1 mps 756 mmHg 51%
09:00 +29°C° 0 mm 2 mps 756 mmHg 49%
10:00 +30°C° 0 mm 2 mps 756 mmHg 47%
11:00 +30°C° 0 mm 2 mps 756 mmHg 46%
12:00 +30°C° 0 mm 2 mps 756 mmHg 46%
13:00 +31°C° 0 mm 3 mps 756 mmHg 46%
14:00 +30°C° 0 mm 3 mps 756 mmHg 47%
15:00 +30°C° 0 mm 3 mps 755 mmHg 47%
16:00 +30°C° 0 mm 4 mps 755 mmHg 47%
17:00 +28°C° 0 mm 4 mps 756 mmHg 55%
18:00 +27°C° 0 mm 4 mps 756 mmHg 63%
19:00 +26°C° 0 mm 5 mps 756 mmHg 71%
20:00 +25°C° 0 mm 5 mps 757 mmHg 75%
21:00 +23°C° 0 mm 5 mps 757 mmHg 79%
22:00 +22°C° 0 mm 5 mps 757 mmHg 83%
23:00 +22°C° 0 mm 6 mps 757 mmHg 85%

19 July, Sunday

Time Temperature Precipitation Wind Pressure Humidity
00:00 +22°C° 0 mm 6 mps 757 mmHg 87%
01:00 +21°C° 0 mm 6 mps 757 mmHg 88%
02:00 +21°C° 0 mm 6 mps 757 mmHg 89%
03:00 +21°C° 0 mm 6 mps 758 mmHg 90%
04:00 +21°C° 0 mm 6 mps 758 mmHg 90%
05:00 +22°C° 0 mm 6 mps 758 mmHg 84%
06:00 +23°C° 0 mm 5 mps 758 mmHg 78%
07:00 +26°C° 0 mm 5 mps 758 mmHg 72%
08:00 +27°C° 0 mm 6 mps 758 mmHg 66%
09:00 +28°C° 0 mm 6 mps 758 mmHg 60%
10:00 +30°C° 0 mm 7 mps 759 mmHg 53%
11:00 +30°C° 0 mm 7 mps 758 mmHg 53%
12:00 +30°C° 0 mm 7 mps 758 mmHg 53%
13:00 +32°C° 0 mm 7 mps 758 mmHg 53%
14:00 +30°C° 0 mm 7 mps 758 mmHg 54%
15:00 +30°C° 0 mm 7 mps 758 mmHg 55%
16:00 +30°C° 0 mm 7 mps 758 mmHg 55%
17:00 +29°C° 0 mm 7 mps 758 mmHg 61%
18:00 +27°C° 0 mm 7 mps 759 mmHg 67%
19:00 +26°C° 0 mm 6 mps 759 mmHg 72%
20:00 +24°C° 0 mm 6 mps 759 mmHg 75%
21:00 +23°C° 0 mm 6 mps 759 mmHg 78%
22:00 +23°C° 0 mm 6 mps 760 mmHg 82%
23:00 +23°C° 0 mm 5 mps 760 mmHg 81%
Show more